Date String (YYYY-MM-DD hh:mm:ss) UTC,Instrument flags,Ambient pressure (hPa),Sample flow (lpm),Bypass flow (lpm),Sample temperature (°C),Ambient temperature (°C),ASC tube jacket temperature (°C),LED temperature (°C),Box temperature (°C),Sample RH (%),Span deviation,Mass concentration (μg/m³),Mass concentration (μg/m³),Mass concentration (μg/m³)
DateTimeUTC,F1_M11,P_M11,Q1_M11,Q2_M11,T1_M11,T2_M11,T3_M11,T4_M11,T5_M11,U1_M11,ZSPAN_M11,X0_M11,X2_M11,X1_M11
2023-02-19 21:00:00,,0818.0,5.00,0.00,21.5,19.6,00.0,30.6,23.0,11.6,0000.0,0005.27,0001.63,0001.01
2023-02-19 21:01:00,,0817.9,4.99,0.00,21.4,19.5,00.0,30.5,22.9,11.7,0000.0,0004.87,0001.59,0001.02
2023-02-19 21:02:00,,0817.8,5.02,0.00,21.4,19.7,00.0,30.5,23.0,11.1,0000.0,0004.98,0001.62,0001.02
2023-02-19 21:03:00,,0817.7,4.99,0.00,21.5,21.1,00.0,30.4,23.3,10.3,0000.0,0004.77,0001.59,0001.03
2023-02-19 21:04:00,,0817.5,5.07,0.00,21.6,22.4,00.0,30.4,23.7,10.3,0000.0,0004.81,0001.60,0001.03
2023-02-19 21:05:00,,0817.5,4.98,0.00,21.8,22.8,00.0,30.5,23.9,10.0,0000.0,0004.47,0001.61,0001.01
2023-02-19 21:06:00,,0817.3,4.95,0.00,21.8,22.2,00.0,30.5,23.8,09.7,0000.0,0004.51,0001.59,0001.01
2023-02-19 21:07:00,,0817.4,5.00,0.00,21.8,21.6,00.0,30.6,23.6,09.7,0000.0,0004.36,0001.57,0001.01
2023-02-19 21:08:00,,0817.5,4.98,0.00,21.8,21.3,00.0,30.6,23.6,09.8,0000.0,0003.59,0001.57,0001.01
2023-02-19 21:09:00,,0817.6,5.02,0.00,21.8,21.0,00.0,30.6,23.6,09.4,0000.0,0003.85,0001.63,0001.02
2023-02-19 21:10:00,,0817.5,5.00,0.00,21.8,20.7,00.0,30.6,23.5,09.8,0000.0,0003.98,0001.65,0001.02
2023-02-19 21:11:00,,0817.6,4.99,0.00,21.8,20.5,00.0,30.7,23.4,10.1,0000.0,0004.03,0001.64,0001.01
2023-02-19 21:12:00,,0817.5,5.02,0.00,21.7,20.3,00.0,30.7,23.3,10.4,0000.0,0004.14,0001.66,0001.01
2023-02-19 21:13:00,,0817.5,5.01,0.00,21.7,20.2,00.0,30.7,23.3,09.9,0000.0,0004.20,0001.67,0001.00
2023-02-19 21:14:00,,0817.5,4.99,0.00,21.7,20.1,00.0,30.7,23.3,10.0,0000.0,0004.25,0001.67,0001.00
2023-02-19 21:15:00,,0817.4,5.00,0.00,21.7,20.1,00.0,30.7,23.3,09.7,0000.0,0004.32,0001.66,0001.01
2023-02-19 21:16:00,,0817.2,5.00,0.00,21.7,20.0,00.0,30.6,23.3,09.7,0000.0,0003.73,0001.64,0001.01
2023-02-19 21:17:00,,0817.1,5.00,0.00,21.6,20.0,00.0,30.6,23.2,09.5,0000.0,0003.73,0001.70,0001.02
2023-02-19 21:18:00,,0817.2,5.01,0.00,21.6,19.9,00.0,30.6,23.2,09.5,0000.0,0003.91,0001.71,0001.01
2023-02-19 21:19:00,,0817.0,5.00,0.00,21.6,20.0,00.0,30.6,23.2,09.6,0000.0,0004.78,0001.72,0001.02
2023-02-19 21:20:00,,0817.0,5.01,0.00,21.6,20.0,00.0,30.6,23.2,09.7,0000.0,0004.61,0001.69,0001.02
2023-02-19 21:21:00,,0817.0,4.99,0.00,21.6,20.0,00.0,30.6,23.2,09.7,0000.0,0004.94,0001.70,0001.02
2023-02-19 21:22:00,,0817.0,4.99,0.00,21.6,20.0,00.0,30.6,23.2,09.6,0000.0,0006.05,0001.73,0001.03
2023-02-19 21:23:00,,0817.0,4.99,0.00,21.6,20.0,00.0,30.5,23.1,09.6,0000.0,0006.06,0001.71,0001.04
2023-02-19 21:24:00,,0817.1,5.01,0.00,21.5,19.9,00.0,30.5,23.1,09.5,0000.0,0005.85,0001.66,0001.05
2023-02-19 21:25:00,,0817.1,4.99,0.00,21.5,19.9,00.0,30.5,23.1,09.7,0000.0,0005.77,0001.65,0001.05
2023-02-19 21:26:00,,0817.1,5.01,0.00,21.5,20.1,00.0,30.5,23.2,09.7,0000.0,0005.57,0001.64,0001.04
2023-02-19 21:27:00,,0817.1,5.01,0.00,21.6,21.3,00.0,30.4,23.5,09.7,0000.0,0005.58,0001.63,0001.04
2023-02-19 21:28:00,,0817.0,5.00,0.00,21.8,22.5,00.0,30.4,23.8,09.8,0000.0,0005.49,0001.61,0001.03
2023-02-19 21:29:00,,0817.1,4.99,0.00,21.9,22.8,00.0,30.5,24.0,09.4,0000.0,0005.41,0001.63,0001.04
2023-02-19 21:30:00,,0817.1,5.00,0.00,21.9,22.2,00.0,30.6,23.9,09.6,0000.0,0004.82,0001.69,0001.05
2023-02-19 21:31:00,,0817.1,5.01,0.00,21.9,21.7,00.0,30.6,23.8,09.4,0000.0,0006.15,0001.67,0001.05
2023-02-19 21:32:00,,0816.8,5.00,0.00,21.9,21.3,00.0,30.7,23.7,09.6,0000.0,0006.27,0001.66,0001.04
2023-02-19 21:33:00,,0816.9,4.96,0.00,21.9,21.0,00.0,30.7,23.7,09.5,0000.0,0005.52,0001.66,0001.03
2023-02-19 21:34:00,,0816.9,5.01,0.00,21.9,20.8,00.0,30.7,23.6,09.4,0000.0,0006.14,0001.71,0001.03
2023-02-19 21:35:00,,0817.0,5.00,0.00,21.9,20.7,00.0,30.7,23.6,09.3,0000.0,0006.16,0001.72,0001.04
2023-02-19 21:36:00,,0816.9,5.00,0.00,21.9,20.5,00.0,30.7,23.6,09.7,0000.0,0006.17,0001.73,0001.05
2023-02-19 21:37:00,,0816.9,5.02,0.00,21.9,20.4,00.0,30.7,23.5,09.5,0000.0,0006.29,0001.75,0001.06
2023-02-19 21:38:00,,0817.0,5.00,0.00,21.9,20.4,00.0,30.7,23.6,09.4,0000.0,0006.46,0001.78,0001.06
2023-02-19 21:39:00,,0816.9,4.99,0.00,21.9,20.4,00.0,30.7,23.5,09.3,0000.0,0006.61,0001.80,0001.08
2023-02-19 21:40:00,,0816.8,4.96,0.00,21.8,20.3,00.0,30.7,23.5,09.1,0000.0,0006.57,0001.78,0001.09
2023-02-19 21:41:00,,0816.6,4.99,0.00,21.8,20.2,00.0,30.7,23.5,09.2,0000.0,0007.62,0001.75,0001.10
2023-02-19 21:42:00,,0816.8,5.01,0.00,21.8,20.2,00.0,30.7,23.4,09.3,0000.0,0007.26,0001.83,0001.11
2023-02-19 21:43:00,,0816.9,4.97,0.00,21.8,20.2,00.0,30.7,23.4,09.3,0000.0,0007.02,0001.84,0001.12
2023-02-19 21:44:00,,0817.0,4.98,0.00,21.7,20.1,00.0,30.7,23.4,09.7,0000.0,0006.86,0001.80,0001.14
2023-02-19 21:45:00,,0817.1,4.99,0.00,21.7,20.0,00.0,30.7,23.4,09.7,0000.0,0006.26,0001.75,0001.13
2023-02-19 21:46:00,,0817.1,5.01,0.00,21.7,20.0,00.0,30.7,23.4,09.7,0000.0,0006.35,0001.77,0001.12
2023-02-19 21:47:00,,0816.7,5.00,0.00,21.7,19.9,00.0,30.7,23.3,09.3,0000.0,0007.27,0001.76,0001.13
2023-02-19 21:48:00,,0816.7,5.01,0.00,21.7,19.9,00.0,30.7,23.3,09.1,0000.0,0007.56,0001.77,0001.13
2023-02-19 21:49:00,,0816.9,5.02,0.00,21.6,19.9,00.0,30.6,23.2,08.9,0000.0,0007.47,0001.74,0001.13
2023-02-19 21:50:00,,0817.0,4.98,0.00,21.6,20.0,00.0,30.6,23.3,09.2,0000.0,0007.42,0001.73,0001.13
2023-02-19 21:51:00,,0816.8,5.00,0.00,21.6,19.9,00.0,30.6,23.3,09.8,0000.0,0007.46,0001.76,0001.12
2023-02-19 21:52:00,,0816.9,5.02,0.00,21.7,20.5,00.0,30.5,23.4,09.2,0000.0,0005.98,0001.78,0001.12
2023-02-19 21:53:00,,0817.0,5.01,0.00,21.8,21.8,00.0,30.5,23.8,09.4,0000.0,0005.30,0001.71,0001.12
2023-02-19 21:54:00,,0817.0,4.99,0.00,21.9,22.8,00.0,30.5,24.0,09.4,0000.0,0005.16,0001.71,0001.11
2023-02-19 21:55:00,,0817.0,4.98,0.00,22.0,22.6,00.0,30.6,24.1,09.3,0000.0,0005.01,0001.74,0001.10
2023-02-19 21:56:00,,0817.1,5.01,0.00,22.0,22.1,00.0,30.7,24.0,09.1,0000.0,0005.57,0001.72,0001.10
2023-02-19 21:57:00,,0817.0,5.00,0.00,22.0,21.7,00.0,30.7,23.9,09.1,0000.0,0005.55,0001.72,0001.11
2023-02-19 21:58:00,,0817.0,5.01,0.00,22.0,21.3,00.0,30.8,23.8,09.2,0000.0,0004.53,0001.75,0001.12
2023-02-19 21:59:00,,0817.0,5.00,0.00,22.0,21.1,00.0,30.8,23.8,09.6,0000.0,0004.09,0001.75,0001.12
